GFSSE_prec_precacc_234.txt.gz
Total_Precipitation_Accumulation
0.47 0.16 0.15 0.28 0.24 0.16 0.13 0.09 0.06 0.05 0.09 0.07 0.07 0.05 0.05 0.04 0.06 0.04 0.12 0.17 0.11 0.13 0.09 0.02 0.02 0.06 0.10 0.12 0.18 0.28 0.21 0.31 0.49 0.77 0.63 0.51 0.35 0.32 0.36 0.45 0.61 0.94 1.19
0.75 0.47 0.47 0.35 0.17 0.15 0.21 0.15 0.09 0.07 0.10 0.07 0.03 0.01 0.01 0.01 0.02 0.05 0.17 0.24 0.23 0.16 0.13 0.05 0.05 0.07 0.14 0.11 0.10 0.13 0.13 0.10 0.14 0.41 0.71 0.94 0.73 0.53 0.64 0.62 0.49 0.68 0.93
1.56 1.10 1.61 1.35 0.68 0.31 0.27 0.23 0.09 0.08 0.06 0.05 0.02 0.01 0.02 0.02 0.02 0.03 0.04 0.12 0.16 0.10 0.09 0.05 0.06 0.08 0.10 0.10 0.13 0.12 0.05 0.03 0.08 0.20 0.53 0.94 0.83 1.07 0.65 0.45 0.40 0.61 0.76
1.52 1.61 1.47 2.33 1.47 1.00 0.75 0.82 0.87 0.41 0.29 0.09 0.07 0.10 0.12 0.09 0.08 0.10 0.07 0.11 0.09 0.09 0.10 0.10 0.12 0.14 0.13 0.12 0.12 0.09 0.03 0.02 0.02 0.11 0.40 1.56 1.45 1.10 0.84 0.52 0.59 0.72 0.88
1.09 1.01 1.31 2.12 1.59 1.06 1.15 1.15 1.68 2.01 1.89 1.04 0.46 0.42 0.39 0.31 0.20 0.12 0.11 0.11 0.11 0.16 0.15 0.10 0.17 0.17 0.07 0.03 0.08 0.11 0.01 0.02 0.07 0.21 1.20 1.26 0.98 1.52 1.66 0.96 0.84 0.69 0.93
2.08 1.53 1.80 2.17 1.34 0.75 1.13 1.46 1.53 2.18 3.37 4.19 4.09 2.55 1.36 0.89 0.47 0.41 0.30 0.26 0.27 0.33 0.40 0.43 0.45 0.36 0.03 0.01 0.00 0.02 0.01 0.04 0.21 0.43 1.35 0.74 1.10 1.24 1.19 1.03 0.61 0.66 0.95
4.59 4.05 3.70 4.00 5.13 2.85 2.56 1.76 1.36 1.47 2.52 4.90 5.29 3.92 2.58 1.93 1.72 1.18 0.69 0.51 0.55 0.52 0.42 0.44 0.26 0.19 0.03 0.01 0.01 0.05 0.04 0.06 0.21 0.46 1.01 0.67 1.33 1.23 1.04 0.90 0.73 0.59 0.67
6.63 8.76 9.08 7.75 8.10 7.64 4.86 3.04 1.99 1.41 1.26 1.68 2.39 2.00 2.09 2.35 1.79 1.64 1.44 0.88 0.60 0.43 0.40 0.29 0.13 0.08 0.06 0.03 0.04 0.10 0.07 0.04 0.16 0.64 1.29 0.88 1.13 1.25 0.80 0.65 0.47 0.38 0.35
5.54 7.05 10.73 9.55 7.17 5.94 6.78 5.98 3.58 2.63 1.74 1.50 1.48 1.79 1.43 2.21 1.72 1.28 1.40 1.61 0.78 0.42 0.62 0.48 0.33 0.54 0.22 0.24 0.21 0.19 0.11 0.10 0.22 0.46 0.97 0.62 0.84 1.40 0.99 0.60 0.41 0.31 0.27
2.60 3.37 3.98 4.09 3.32 2.93 3.65 4.60 4.44 3.05 2.55 2.21 1.49 1.61 1.74 1.69 1.59 1.43 1.46 1.68 1.33 0.59 0.52 0.52 0.69 0.52 0.57 0.39 0.22 0.26 0.30 0.29 0.18 0.56 0.63 0.37 0.66 1.13 1.10 0.67 0.53 0.44 0.30
2.30 1.64 1.69 1.30 0.90 0.88 1.34 2.08 2.81 2.59 2.65 2.61 2.12 1.37 2.08 2.20 1.31 1.60 1.83 1.64 1.13 0.61 0.56 0.59 0.57 0.61 0.59 0.63 0.65 0.64 0.46 0.21 0.31 0.38 0.45 0.27 0.55 0.62 0.93 1.11 0.80 0.56 0.50
0.95 0.78 0.51 0.41 0.33 0.30 0.30 0.47 0.80 1.57 2.31 2.35 2.90 1.66 1.55 2.43 1.42 1.50 1.89 1.38 1.16 0.76 0.54 0.56 0.52 0.56 0.54 0.44 0.59 0.52 0.25 0.19 0.31 0.56 0.40 0.28 0.45 0.45 0.83 1.03 0.67 0.67 0.69
0.32 0.22 0.28 0.50 0.51 0.25 0.26 0.24 0.32 0.77 1.56 1.62 2.61 2.26 1.00 1.45 1.74 1.82 2.22 1.40 0.98 0.93 0.74 0.65 0.38 0.32 0.27 0.29 0.34 0.38 0.41 0.42 0.52 0.53 0.43 0.21 0.42 0.58 0.84 0.66 0.55 0.55 0.56
0.16 0.16 0.12 0.18 0.27 0.29 0.28 0.27 0.29 0.56 0.98 1.02 1.39 2.46 1.26 1.17 1.35 1.57 1.64 1.25 0.66 0.60 0.57 0.61 0.46 0.40 0.38 0.43 0.38 0.37 0.48 0.77 0.89 1.14 0.56 0.28 0.47 0.94 0.79 0.70 0.52 0.45 0.48
0.08 0.16 0.20 0.21 0.39 0.49 0.49 0.37 0.29 0.79 0.95 0.87 0.90 1.28 1.26 1.16 1.01 1.39 1.18 1.44 0.80 0.57 0.47 0.50 0.40 0.35 0.32 0.35 0.25 0.32 0.43 0.72 1.30 1.06 0.71 0.38 0.36 0.66 0.92 0.91 0.70 0.47 0.52
0.10 0.19 0.28 0.29 0.47 0.37 0.50 0.58 0.67 0.83 0.95 0.82 0.74 0.91 0.96 1.11 1.10 1.30 1.21 1.14 1.04 1.02 0.54 0.49 0.46 0.27 0.30 0.35 0.39 0.27 0.29 0.34 0.54 0.58 0.43 0.35 0.47 0.69 1.13 1.32 1.31 1.05 0.61
0.22 0.25 0.42 0.65 0.56 0.29 0.26 0.31 0.65 1.07 0.89 0.78 0.79 0.83 0.87 0.86 0.93 1.03 1.14 1.05 0.90 1.29 0.85 0.59 0.65 0.63 0.46 0.31 0.33 0.36 0.38 0.24 0.16 0.18 0.25 0.29 0.38 0.58 0.70 0.96 1.20 1.31 1.29
0.07 0.19 0.43 0.61 0.58 0.51 0.33 0.46 0.49 0.86 1.10 0.93 0.71 0.76 1.06 1.01 0.93 0.86 1.04 0.85 1.05 1.03 0.84 0.72 0.90 0.89 0.76 0.40 0.37 0.36 0.43 0.40 0.33 0.25 0.15 0.17 0.20 0.18 0.35 0.66 0.86 1.24 1.41
0.02 0.19 0.62 0.82 0.83 0.78 0.69 0.73 1.01 0.97 0.96 0.77 0.77 0.69 0.68 0.74 0.97 0.90 0.90 1.00 1.21 1.30 1.19 1.22 1.14 1.09 0.86 0.67 0.43 0.31 0.35 0.35 0.24 0.25 0.16 0.12 0.13 0.17 0.22 0.39 0.57 0.78 1.31
0.03 0.26 0.74 0.92 1.16 1.30 1.14 1.06 0.89 0.81 0.73 0.71 0.63 0.70 0.82 0.85 0.82 0.96 0.87 0.83 1.07 1.39 1.10 1.04 0.93 1.00 0.97 0.96 0.82 0.78 0.70 0.65 0.51 0.38 0.29 0.23 0.21 0.25 0.29 0.29 0.40 0.43 0.49
0.10 0.40 0.74 0.90 1.20 1.16 0.66 0.53 0.57 0.57 0.45 0.59 0.60 0.68 0.86 1.09 1.12 1.01 0.88 0.86 0.96 1.01 1.02 1.29 1.55 1.74 1.54 1.23 1.16 0.99 0.69 0.53 0.43 0.29 0.20 0.18 0.21 0.24 0.32 0.37 0.44 0.53 0.47
0.24 0.52 0.62 0.49 0.35 0.21 0.18 0.29 0.42 0.51 0.52 0.48 0.57 0.74 0.69 1.02 1.05 0.88 0.86 0.85 0.99 1.12 1.05 0.88 1.02 1.18 1.17 1.06 0.99 0.94 0.93 0.78 0.58 0.35 0.19 0.13 0.13 0.16 0.22 0.27 0.34 0.43 0.50
0.15 0.16 0.14 0.11 0.09 0.13 0.16 0.38 0.61 0.91 0.84 0.69 0.60 0.60 0.75 0.95 1.12 1.00 0.89 0.79 0.79 1.17 1.44 1.21 1.12 1.11 1.01 0.99 0.89 0.93 1.01 0.78 0.49 0.41 0.35 0.23 0.27 0.29 0.27 0.35 0.41 0.54 0.62
0.03 0.14 0.15 0.15 0.17 0.26 0.30 0.40 0.54 0.54 0.42 0.28 0.28 0.36 0.49 0.85 1.20 0.97 1.19 1.25 1.17 0.94 1.10 1.47 1.41 1.24 1.32 1.35 1.46 1.24 0.92 0.88 0.80 0.73 0.44 0.41 0.33 0.41 0.45 0.52 0.65 0.85 0.92
0.09 0.16 0.18 0.17 0.20 0.32 0.38 0.43 0.76 0.83 0.85 0.83 0.93 1.05 1.14 1.25 1.50 1.42 1.20 1.63 1.78 1.69 1.33 1.62 1.97 2.11 2.01 2.05 1.99 1.79 1.72 1.55 1.27 1.06 0.85 0.66 0.70 0.55 0.52 0.58 0.65 0.83 0.99
0.13 0.18 0.15 0.27 0.43 0.74 0.99 1.15 1.31 1.55 1.58 1.54 1.51 1.49 1.51 1.68 1.95 2.02 2.14 2.10 2.55 2.54 2.29 1.97 1.97 2.36 2.81 2.80 2.46 2.46 2.07 1.74 1.43 1.39 1.12 0.91 1.09 1.06 0.88 0.86 0.78 0.79 1.04

GFSSE_prec_precacc_237.txt.gz
Total_Precipitation_Accumulation
0.51 0.16 0.15 0.28 0.24 0.16 0.13 0.09 0.06 0.05 0.09 0.07 0.07 0.05 0.05 0.04 0.06 0.04 0.12 0.17 0.11 0.13 0.09 0.02 0.02 0.06 0.10 0.12 0.18 0.28 0.21 0.31 0.49 0.77 0.63 0.51 0.35 0.32 0.36 0.45 0.61 0.94 1.19
0.76 0.47 0.47 0.35 0.17 0.15 0.21 0.15 0.09 0.07 0.10 0.07 0.03 0.01 0.01 0.01 0.02 0.05 0.17 0.24 0.23 0.16 0.13 0.05 0.05 0.07 0.14 0.11 0.10 0.13 0.13 0.10 0.14 0.41 0.71 0.94 0.73 0.53 0.64 0.62 0.49 0.68 0.94
1.56 1.10 1.61 1.35 0.68 0.31 0.27 0.23 0.09 0.08 0.06 0.05 0.02 0.01 0.02 0.02 0.02 0.03 0.04 0.12 0.16 0.10 0.09 0.05 0.06 0.08 0.10 0.10 0.13 0.12 0.05 0.03 0.08 0.20 0.53 0.94 0.83 1.07 0.65 0.45 0.40 0.61 0.76
1.52 1.61 1.47 2.33 1.47 1.00 0.75 0.82 0.87 0.41 0.29 0.09 0.07 0.10 0.12 0.09 0.08 0.10 0.07 0.11 0.09 0.09 0.10 0.10 0.12 0.14 0.13 0.12 0.12 0.09 0.03 0.02 0.02 0.11 0.40 1.56 1.45 1.10 0.84 0.52 0.59 0.72 0.88
1.09 1.01 1.31 2.12 1.59 1.06 1.15 1.15 1.68 2.01 1.89 1.04 0.46 0.42 0.39 0.31 0.20 0.12 0.11 0.11 0.11 0.16 0.15 0.10 0.17 0.17 0.07 0.03 0.08 0.11 0.01 0.02 0.07 0.21 1.20 1.26 0.98 1.52 1.66 0.96 0.84 0.69 0.93
2.08 1.53 1.80 2.17 1.34 0.75 1.13 1.46 1.53 2.18 3.37 4.19 4.09 2.55 1.36 0.89 0.47 0.41 0.30 0.26 0.27 0.33 0.40 0.43 0.45 0.36 0.03 0.01 0.00 0.02 0.01 0.04 0.21 0.43 1.35 0.74 1.10 1.24 1.19 1.03 0.61 0.66 0.95
4.59 4.05 3.70 4.00 5.13 2.85 2.56 1.76 1.36 1.47 2.52 4.90 5.29 3.92 2.58 1.93 1.72 1.18 0.69 0.51 0.55 0.52 0.42 0.44 0.26 0.19 0.03 0.01 0.01 0.05 0.04 0.06 0.21 0.46 1.01 0.67 1.33 1.23 1.04 0.90 0.73 0.59 0.67
6.63 8.76 9.08 7.75 8.10 7.64 4.86 3.04 1.99 1.41 1.26 1.68 2.39 2.00 2.09 2.35 1.79 1.64 1.44 0.88 0.60 0.43 0.40 0.29 0.13 0.08 0.06 0.03 0.04 0.10 0.07 0.04 0.16 0.64 1.30 0.91 1.14 1.25 0.80 0.65 0.47 0.38 0.35
5.54 7.05 10.73 9.55 7.17 5.94 6.78 5.98 3.58 2.63 1.74 1.50 1.48 1.79 1.43 2.21 1.72 1.28 1.40 1.61 0.78 0.42 0.62 0.48 0.33 0.54 0.22 0.24 0.21 0.19 0.11 0.10 0.22 0.46 0.99 0.65 0.86 1.40 0.99 0.60 0.41 0.31 0.27
2.60 3.37 3.98 4.09 3.32 2.93 3.65 4.60 4.44 3.05 2.55 2.21 1.49 1.61 1.74 1.69 1.59 1.43 1.46 1.68 1.33 0.59 0.52 0.52 0.69 0.52 0.57 0.39 0.22 0.26 0.30 0.29 0.18 0.57 0.66 0.41 0.67 1.13 1.10 0.67 0.53 0.44 0.30
2.30 1.64 1.69 1.30 0.90 0.88 1.34 2.08 2.81 2.59 2.65 2.61 2.12 1.37 2.08 2.20 1.31 1.60 1.83 1.64 1.13 0.61 0.56 0.59 0.57 0.61 0.59 0.63 0.65 0.64 0.46 0.21 0.31 0.38 0.46 0.31 0.58 0.63 0.93 1.11 0.80 0.56 0.50
0.95 0.78 0.51 0.41 0.33 0.30 0.30 0.47 0.80 1.57 2.31 2.35 2.90 1.66 1.55 2.43 1.42 1.50 1.89 1.38 1.16 0.76 0.54 0.56 0.52 0.56 0.54 0.44 0.59 0.52 0.25 0.19 0.31 0.56 0.40 0.29 0.49 0.49 0.83 1.03 0.67 0.67 0.69
0.32 0.22 0.28 0.50 0.51 0.25 0.26 0.24 0.32 0.77 1.56 1.62 2.61 2.26 1.00 1.45 1.74 1.82 2.22 1.40 0.98 0.93 0.74 0.65 0.38 0.32 0.27 0.29 0.34 0.38 0.41 0.42 0.52 0.53 0.43 0.21 0.43 0.59 0.84 0.66 0.55 0.55 0.56
0.16 0.16 0.12 0.18 0.27 0.29 0.28 0.27 0.29 0.56 0.98 1.02 1.39 2.46 1.26 1.17 1.35 1.57 1.64 1.25 0.66 0.60 0.57 0.61 0.46 0.40 0.38 0.43 0.38 0.37 0.48 0.77 0.89 1.14 0.56 0.29 0.49 0.96 0.80 0.70 0.52 0.45 0.48
0.08 0.16 0.20 0.21 0.39 0.49 0.49 0.37 0.30 0.79 0.95 0.87 0.90 1.28 1.26 1.16 1.01 1.39 1.18 1.44 0.80 0.57 0.47 0.50 0.40 0.35 0.32 0.35 0.25 0.32 0.43 0.72 1.30 1.06 0.71 0.39 0.37 0.68 0.96 0.92 0.70 0.47 0.52
0.10 0.19 0.28 0.29 0.47 0.37 0.50 0.58 0.67 0.83 0.95 0.82 0.74 0.91 0.96 1.11 1.10 1.30 1.21 1.14 1.04 1.02 0.54 0.49 0.46 0.27 0.30 0.35 0.39 0.27 0.29 0.34 0.54 0.58 0.43 0.36 0.47 0.70 1.19 1.43 1.37 1.06 0.61
0.22 0.25 0.42 0.65 0.56 0.29 0.26 0.31 0.66 1.07 0.89 0.78 0.79 0.83 0.87 0.86 0.94 1.03 1.14 1.05 0.90 1.29 0.85 0.59 0.65 0.63 0.46 0.31 0.33 0.36 0.38 0.24 0.16 0.18 0.25 0.30 0.40 0.62 0.75 1.03 1.31 1.38 1.30
0.07 0.19 0.43 0.61 0.58 0.51 0.33 0.46 0.49 0.86 1.10 0.93 0.71 0.76 1.06 1.01 0.94 0.86 1.04 0.85 1.06 1.03 0.85 0.72 0.90 0.89 0.76 0.40 0.37 0.36 0.43 0.40 0.33 0.25 0.15 0.17 0.20 0.18 0.36 0.68 0.89 1.30 1.46
0.02 0.19 0.62 0.82 0.83 0.78 0.69 0.73 1.01 0.97 0.96 0.77 0.77 0.69 0.68 0.74 0.97 0.90 0.90 1.00 1.21 1.32 1.19 1.22 1.14 1.09 0.86 0.67 0.43 0.31 0.35 0.35 0.24 0.25 0.16 0.12 0.13 0.18 0.22 0.41 0.58 0.79 1.35
0.03 0.26 0.74 0.92 1.16 1.30 1.14 1.06 0.89 0.81 0.73 0.71 0.63 0.70 0.82 0.85 0.82 0.96 0.87 0.83 1.07 1.39 1.10 1.04 0.93 1.00 0.97 0.96 0.82 0.78 0.70 0.65 0.51 0.38 0.29 0.23 0.21 0.25 0.29 0.29 0.40 0.44 0.51
0.10 0.40 0.74 0.90 1.20 1.16 0.66 0.53 0.57 0.57 0.45 0.59 0.60 0.68 0.86 1.09 1.12 1.01 0.89 0.87 0.97 1.01 1.02 1.29 1.55 1.74 1.54 1.23 1.16 0.99 0.69 0.53 0.43 0.29 0.20 0.18 0.21 0.24 0.32 0.38 0.47 0.55 0.50
0.24 0.52 0.62 0.49 0.35 0.21 0.18 0.29 0.42 0.51 0.52 0.48 0.57 0.74 0.69 1.02 1.05 0.88 0.87 0.87 1.00 1.12 1.05 0.88 1.02 1.18 1.17 1.06 0.99 0.94 0.93 0.78 0.58 0.35 0.19 0.13 0.13 0.16 0.22 0.28 0.36 0.46 0.55
0.15 0.16 0.14 0.11 0.09 0.13 0.16 0.38 0.61 0.91 0.84 0.69 0.60 0.60 0.75 0.95 1.13 1.01 0.90 0.81 0.79 1.18 1.44 1.21 1.12 1.11 1.01 0.99 0.89 0.93 1.01 0.78 0.49 0.41 0.35 0.23 0.27 0.29 0.27 0.35 0.41 0.54 0.64
0.03 0.14 0.15 0.15 0.17 0.26 0.30 0.40 0.54 0.54 0.42 0.28 0.28 0.36 0.49 0.85 1.20 0.98 1.26 1.33 1.20 0.94 1.10 1.47 1.41 1.24 1.32 1.35 1.46 1.24 0.92 0.88 0.80 0.73 0.44 0.41 0.33 0.41 0.45 0.52 0.65 0.85 0.92
0.09 0.16 0.18 0.17 0.21 0.32 0.38 0.43 0.76 0.83 0.85 0.83 0.93 1.05 1.14 1.27 1.55 1.52 1.35 1.77 1.83 1.69 1.33 1.62 1.97 2.11 2.01 2.05 1.99 1.79 1.72 1.55 1.27 1.06 0.85 0.66 0.70 0.55 0.52 0.58 0.65 0.83 0.99
0.13 0.18 0.15 0.27 0.43 0.74 0.99 1.15 1.31 1.55 1.58 1.54 1.51 1.50 1.54 1.73 2.04 2.15 2.28 2.19 2.57 2.54 2.29 1.97 1.97 2.36 2.81 2.80 2.46 2.46 2.07 1.74 1.43 1.39 1.12 0.91 1.09 1.06 0.88 0.86 0.78 0.79 1.04

GFSSE_prec_precacc_243.txt.gz
Total_Precipitation_Accumulation
0.51 0.16 0.15 0.28 0.24 0.16 0.13 0.09 0.06 0.05 0.09 0.07 0.07 0.05 0.05 0.04 0.06 0.04 0.12 0.17 0.11 0.13 0.09 0.02 0.02 0.06 0.10 0.12 0.18 0.28 0.21 0.31 0.49 0.77 0.63 0.51 0.35 0.32 0.36 0.45 0.61 0.94 1.19
0.76 0.47 0.47 0.35 0.17 0.15 0.21 0.15 0.09 0.07 0.10 0.07 0.03 0.01 0.01 0.01 0.02 0.05 0.17 0.24 0.23 0.16 0.13 0.05 0.05 0.07 0.14 0.11 0.10 0.13 0.13 0.10 0.14 0.41 0.71 0.94 0.73 0.53 0.64 0.62 0.49 0.68 0.94
1.57 1.10 1.61 1.35 0.68 0.31 0.27 0.23 0.09 0.08 0.06 0.05 0.02 0.01 0.02 0.02 0.02 0.03 0.04 0.12 0.16 0.10 0.09 0.05 0.06 0.08 0.10 0.10 0.13 0.12 0.05 0.03 0.08 0.20 0.53 0.94 0.83 1.07 0.65 0.45 0.40 0.61 0.76
1.53 1.61 1.47 2.33 1.47 1.00 0.75 0.82 0.87 0.41 0.29 0.09 0.07 0.10 0.12 0.09 0.08 0.10 0.07 0.11 0.09 0.09 0.10 0.10 0.12 0.14 0.13 0.12 0.12 0.09 0.03 0.02 0.02 0.11 0.40 1.56 1.45 1.10 0.84 0.52 0.59 0.73 0.88
1.09 1.01 1.31 2.12 1.59 1.06 1.15 1.15 1.68 2.01 1.89 1.04 0.46 0.42 0.39 0.31 0.20 0.12 0.11 0.11 0.11 0.16 0.15 0.10 0.17 0.17 0.07 0.03 0.08 0.11 0.01 0.02 0.07 0.21 1.20 1.26 0.98 1.52 1.66 0.96 0.84 0.69 0.93
2.08 1.53 1.80 2.17 1.34 0.75 1.13 1.46 1.53 2.18 3.37 4.19 4.09 2.55 1.36 0.89 0.47 0.41 0.30 0.26 0.27 0.33 0.40 0.43 0.45 0.36 0.03 0.01 0.00 0.02 0.01 0.04 0.21 0.43 1.35 0.74 1.10 1.24 1.19 1.03 0.61 0.66 0.95
4.59 4.05 3.70 4.00 5.13 2.85 2.56 1.76 1.36 1.47 2.52 4.90 5.29 3.92 2.58 1.93 1.72 1.18 0.69 0.51 0.55 0.52 0.42 0.44 0.26 0.19 0.03 0.01 0.01 0.05 0.04 0.06 0.21 0.46 1.01 0.67 1.33 1.23 1.04 0.90 0.73 0.59 0.67
6.63 8.76 9.08 7.75 8.10 7.64 4.86 3.04 1.99 1.41 1.26 1.68 2.39 2.00 2.09 2.35 1.79 1.64 1.44 0.88 0.60 0.43 0.40 0.29 0.13 0.08 0.06 0.03 0.04 0.10 0.07 0.04 0.16 0.64 1.30 0.91 1.14 1.25 0.80 0.65 0.47 0.38 0.35
5.54 7.05 10.73 9.55 7.17 5.94 6.78 5.98 3.58 2.63 1.74 1.50 1.48 1.79 1.43 2.21 1.72 1.28 1.40 1.61 0.78 0.42 0.62 0.48 0.33 0.54 0.22 0.24 0.21 0.19 0.11 0.10 0.22 0.46 0.99 0.65 0.86 1.40 0.99 0.60 0.41 0.31 0.27
2.60 3.37 3.98 4.09 3.32 2.93 3.65 4.60 4.44 3.05 2.55 2.21 1.49 1.61 1.74 1.69 1.59 1.43 1.46 1.68 1.33 0.59 0.52 0.52 0.69 0.52 0.57 0.39 0.22 0.26 0.30 0.29 0.18 0.57 0.66 0.41 0.67 1.13 1.10 0.67 0.53 0.44 0.30
2.30 1.64 1.69 1.30 0.90 0.88 1.34 2.08 2.81 2.59 2.65 2.61 2.12 1.37 2.08 2.20 1.31 1.60 1.83 1.64 1.13 0.61 0.56 0.59 0.57 0.61 0.59 0.63 0.65 0.64 0.46 0.21 0.31 0.38 0.46 0.31 0.59 0.63 0.94 1.12 0.80 0.56 0.50
0.95 0.78 0.51 0.41 0.33 0.30 0.30 0.47 0.80 1.57 2.31 2.35 2.90 1.66 1.55 2.43 1.42 1.50 1.89 1.38 1.16 0.76 0.54 0.56 0.52 0.56 0.54 0.44 0.59 0.52 0.25 0.19 0.31 0.56 0.40 0.29 0.50 0.54 0.88 1.04 0.67 0.67 0.69
0.32 0.22 0.28 0.50 0.51 0.25 0.26 0.24 0.32 0.77 1.56 1.62 2.61 2.26 1.00 1.45 1.74 1.82 2.22 1.40 0.98 0.93 0.74 0.65 0.38 0.32 0.27 0.29 0.34 0.38 0.41 0.42 0.52 0.53 0.43 0.21 0.45 0.67 0.91 0.67 0.55 0.55 0.56
0.16 0.16 0.12 0.18 0.27 0.29 0.28 0.27 0.29 0.56 0.98 1.02 1.39 2.46 1.26 1.17 1.35 1.57 1.64 1.25 0.66 0.60 0.57 0.61 0.46 0.40 0.38 0.43 0.38 0.37 0.48 0.77 0.89 1.14 0.56 0.29 0.51 1.03 0.89 0.75 0.55 0.46 0.48
0.08 0.16 0.20 0.21 0.39 0.49 0.49 0.37 0.30 0.79 0.95 0.87 0.90 1.28 1.26 1.16 1.01 1.39 1.18 1.44 0.80 0.57 0.47 0.50 0.40 0.35 0.32 0.35 0.25 0.32 0.43 0.72 1.30 1.06 0.71 0.39 0.37 0.71 1.05 1.02 0.78 0.49 0.53
0.10 0.19 0.28 0.29 0.47 0.37 0.50 0.58 0.67 0.83 0.95 0.82 0.74 0.91 0.96 1.11 1.10 1.30 1.21 1.14 1.04 1.02 0.54 0.49 0.46 0.27 0.30 0.35 0.39 0.27 0.29 0.34 0.54 0.58 0.43 0.36 0.47 0.71 1.23 1.52 1.48 1.15 0.68
0.22 0.25 0.42 0.65 0.56 0.29 0.26 0.31 0.66 1.07 0.89 0.78 0.79 0.83 0.87 0.86 0.94 1.03 1.14 1.05 0.90 1.29 0.85 0.59 0.65 0.63 0.46 0.31 0.33 0.36 0.38 0.24 0.16 0.18 0.25 0.30 0.40 0.62 0.75 1.06 1.43 1.52 1.41
0.07 0.19 0.43 0.61 0.58 0.51 0.33 0.46 0.49 0.86 1.10 0.93 0.71 0.76 1.06 1.01 0.94 0.86 1.04 0.85 1.06 1.03 0.85 0.72 0.90 0.89 0.76 0.40 0.37 0.36 0.43 0.40 0.33 0.25 0.15 0.17 0.20 0.18 0.36 0.69 0.92 1.39 1.56
0.02 0.19 0.62 0.82 0.83 0.78 0.69 0.73 1.01 0.97 0.96 0.77 0.77 0.69 0.68 0.74 0.97 0.90 0.90 1.00 1.21 1.32 1.19 1.22 1.14 1.09 0.86 0.67 0.43 0.31 0.35 0.35 0.24 0.25 0.16 0.12 0.13 0.18 0.22 0.41 0.59 0.80 1.37
0.03 0.26 0.74 0.92 1.16 1.30 1.14 1.06 0.89 0.81 0.73 0.71 0.63 0.70 0.82 0.85 0.82 0.96 0.87 0.83 1.07 1.39 1.10 1.04 0.93 1.00 0.97 0.96 0.82 0.78 0.70 0.65 0.51 0.38 0.29 0.23 0.21 0.25 0.29 0.29 0.40 0.44 0.51
0.10 0.40 0.74 0.90 1.20 1.16 0.66 0.53 0.57 0.57 0.45 0.59 0.60 0.68 0.86 1.09 1.12 1.01 0.89 0.87 0.97 1.01 1.02 1.29 1.55 1.74 1.55 1.24 1.16 0.99 0.69 0.53 0.43 0.29 0.20 0.18 0.21 0.24 0.32 0.38 0.47 0.55 0.50
0.24 0.52 0.62 0.49 0.35 0.21 0.18 0.29 0.42 0.51 0.52 0.48 0.57 0.74 0.69 1.02 1.05 0.88 0.87 0.87 1.00 1.12 1.05 0.89 1.02 1.18 1.17 1.07 1.00 0.94 0.93 0.78 0.58 0.35 0.19 0.13 0.13 0.16 0.22 0.28 0.36 0.46 0.55
0.15 0.16 0.14 0.11 0.09 0.13 0.16 0.38 0.61 0.91 0.84 0.69 0.60 0.60 0.75 0.95 1.13 1.01 0.91 0.81 0.80 1.20 1.48 1.24 1.15 1.13 1.03 1.01 0.89 0.93 1.01 0.78 0.49 0.41 0.35 0.23 0.27 0.29 0.27 0.35 0.41 0.54 0.64
0.03 0.14 0.15 0.15 0.17 0.26 0.30 0.40 0.54 0.54 0.42 0.28 0.31 0.39 0.50 0.85 1.20 0.99 1.27 1.36 1.22 1.01 1.19 1.55 1.51 1.33 1.45 1.51 1.60 1.26 0.92 0.88 0.80 0.73 0.44 0.41 0.33 0.41 0.45 0.52 0.65 0.85 0.92
0.09 0.16 0.18 0.17 0.21 0.32 0.38 0.43 0.76 0.83 0.85 0.83 0.96 1.09 1.17 1.30 1.56 1.53 1.40 1.85 1.91 1.77 1.45 1.82 2.43 2.69 2.61 2.75 2.37 1.86 1.73 1.55 1.27 1.06 0.85 0.66 0.70 0.55 0.52 0.58 0.65 0.83 0.99
0.13 0.18 0.15 0.27 0.43 0.74 0.99 1.15 1.31 1.55 1.58 1.55 1.53 1.52 1.56 1.74 2.05 2.17 2.35 2.33 2.72 2.65 2.47 2.27 2.45 3.20 3.75 3.39 2.76 2.54 2.08 1.74 1.43 1.39 1.12 0.91 1.09 1.06 0.88 0.86 0.78 0.79 1.04

GFSSE_prec_precacc_246.txt.gz
Total_Precipitation_Accumulation
0.51 0.16 0.15 0.28 0.24 0.16 0.13 0.09 0.06 0.05 0.09 0.07 0.07 0.05 0.05 0.04 0.06 0.04 0.12 0.17 0.11 0.13 0.09 0.02 0.02 0.06 0.10 0.12 0.18 0.28 0.21 0.31 0.49 0.77 0.63 0.51 0.35 0.32 0.36 0.45 0.61 0.94 1.19
0.76 0.47 0.47 0.35 0.17 0.15 0.21 0.15 0.09 0.07 0.10 0.07 0.03 0.01 0.01 0.01 0.02 0.05 0.17 0.24 0.23 0.16 0.13 0.05 0.05 0.07 0.14 0.11 0.10 0.13 0.13 0.10 0.14 0.41 0.71 0.94 0.73 0.53 0.64 0.62 0.49 0.68 0.94
1.57 1.10 1.61 1.35 0.68 0.31 0.27 0.23 0.09 0.08 0.06 0.05 0.02 0.01 0.02 0.02 0.02 0.03 0.04 0.12 0.16 0.10 0.09 0.05 0.06 0.08 0.10 0.10 0.13 0.12 0.05 0.03 0.08 0.20 0.53 0.94 0.83 1.07 0.65 0.45 0.40 0.61 0.76
1.53 1.61 1.47 2.33 1.47 1.00 0.75 0.82 0.87 0.41 0.29 0.09 0.07 0.10 0.12 0.09 0.08 0.10 0.07 0.11 0.09 0.09 0.10 0.10 0.12 0.14 0.13 0.12 0.12 0.09 0.03 0.02 0.02 0.11 0.40 1.56 1.45 1.10 0.84 0.52 0.59 0.73 0.88
1.09 1.01 1.31 2.12 1.59 1.06 1.15 1.15 1.68 2.01 1.89 1.04 0.46 0.42 0.39 0.31 0.20 0.12 0.11 0.11 0.11 0.16 0.15 0.10 0.17 0.17 0.07 0.03 0.08 0.11 0.01 0.02 0.07 0.21 1.20 1.26 0.98 1.52 1.66 0.96 0.84 0.69 0.93
2.08 1.53 1.80 2.17 1.34 0.75 1.13 1.46 1.53 2.18 3.37 4.19 4.09 2.55 1.36 0.89 0.47 0.41 0.30 0.26 0.27 0.33 0.40 0.43 0.45 0.36 0.03 0.01 0.00 0.02 0.01 0.04 0.21 0.43 1.35 0.74 1.10 1.24 1.19 1.03 0.61 0.66 0.95
4.59 4.05 3.70 4.00 5.13 2.85 2.56 1.76 1.36 1.47 2.52 4.90 5.29 3.92 2.58 1.93 1.72 1.18 0.69 0.51 0.55 0.52 0.42 0.44 0.26 0.19 0.03 0.01 0.01 0.05 0.04 0.06 0.21 0.46 1.01 0.67 1.33 1.23 1.04 0.90 0.73 0.59 0.67
6.63 8.76 9.08 7.75 8.10 7.64 4.86 3.04 1.99 1.41 1.26 1.68 2.39 2.00 2.09 2.35 1.79 1.64 1.44 0.88 0.60 0.43 0.40 0.29 0.13 0.08 0.06 0.03 0.04 0.10 0.07 0.04 0.16 0.64 1.30 0.91 1.14 1.25 0.80 0.65 0.47 0.38 0.35
5.54 7.05 10.73 9.55 7.17 5.94 6.78 5.98 3.58 2.63 1.74 1.50 1.48 1.79 1.43 2.21 1.72 1.28 1.40 1.61 0.78 0.42 0.62 0.48 0.33 0.54 0.22 0.24 0.21 0.19 0.11 0.10 0.22 0.46 0.99 0.65 0.86 1.40 0.99 0.60 0.41 0.31 0.27
2.60 3.37 3.98 4.09 3.32 2.93 3.65 4.60 4.44 3.05 2.55 2.21 1.49 1.61 1.74 1.69 1.59 1.43 1.46 1.68 1.33 0.59 0.52 0.52 0.69 0.52 0.57 0.39 0.22 0.26 0.30 0.29 0.18 0.57 0.66 0.41 0.67 1.13 1.10 0.67 0.53 0.44 0.30
2.30 1.64 1.69 1.30 0.90 0.88 1.34 2.08 2.81 2.59 2.65 2.61 2.12 1.37 2.08 2.20 1.31 1.60 1.83 1.64 1.13 0.61 0.56 0.59 0.57 0.61 0.59 0.63 0.65 0.64 0.46 0.21 0.31 0.38 0.46 0.31 0.59 0.63 0.94 1.13 0.80 0.56 0.50
0.95 0.78 0.51 0.41 0.33 0.30 0.30 0.47 0.80 1.57 2.31 2.35 2.90 1.66 1.55 2.43 1.42 1.50 1.89 1.38 1.16 0.76 0.54 0.56 0.52 0.56 0.54 0.44 0.59 0.52 0.25 0.19 0.31 0.56 0.40 0.29 0.50 0.54 0.89 1.05 0.67 0.67 0.69
0.32 0.22 0.28 0.50 0.51 0.25 0.26 0.24 0.32 0.77 1.56 1.62 2.61 2.26 1.00 1.45 1.74 1.82 2.22 1.40 0.98 0.93 0.74 0.65 0.38 0.32 0.27 0.29 0.34 0.38 0.41 0.42 0.52 0.53 0.43 0.21 0.45 0.68 0.93 0.69 0.57 0.55 0.56
0.16 0.16 0.12 0.18 0.27 0.29 0.28 0.27 0.29 0.56 0.98 1.02 1.39 2.46 1.26 1.17 1.35 1.57 1.64 1.25 0.66 0.60 0.57 0.61 0.46 0.40 0.38 0.43 0.38 0.37 0.48 0.77 0.89 1.14 0.56 0.29 0.51 1.03 0.91 0.76 0.57 0.48 0.48
0.08 0.16 0.20 0.21 0.39 0.49 0.49 0.37 0.30 0.79 0.95 0.87 0.90 1.28 1.26 1.16 1.01 1.39 1.18 1.44 0.80 0.57 0.47 0.50 0.40 0.35 0.32 0.35 0.25 0.32 0.43 0.72 1.30 1.06 0.71 0.39 0.37 0.71 1.06 1.03 0.79 0.51 0.54
0.10 0.19 0.28 0.29 0.47 0.37 0.50 0.58 0.67 0.83 0.95 0.82 0.74 0.91 0.96 1.11 1.10 1.30 1.21 1.14 1.04 1.02 0.54 0.49 0.46 0.27 0.30 0.35 0.39 0.27 0.29 0.34 0.54 0.58 0.43 0.36 0.47 0.71 1.23 1.53 1.49 1.16 0.70
0.22 0.25 0.42 0.65 0.56 0.29 0.26 0.31 0.66 1.07 0.89 0.78 0.79 0.83 0.87 0.86 0.94 1.03 1.14 1.05 0.90 1.29 0.85 0.59 0.65 0.63 0.46 0.31 0.33 0.36 0.38 0.24 0.16 0.18 0.25 0.30 0.40 0.62 0.75 1.06 1.43 1.52 1.42
0.07 0.19 0.43 0.61 0.58 0.51 0.33 0.46 0.49 0.86 1.10 0.93 0.71 0.76 1.06 1.01 0.94 0.86 1.04 0.85 1.06 1.03 0.85 0.72 0.90 0.89 0.76 0.40 0.37 0.36 0.43 0.40 0.33 0.25 0.15 0.17 0.20 0.18 0.36 0.69 0.92 1.39 1.56
0.02 0.19 0.62 0.82 0.83 0.78 0.69 0.73 1.01 0.97 0.96 0.77 0.77 0.69 0.68 0.74 0.97 0.90 0.90 1.00 1.21 1.32 1.19 1.22 1.14 1.09 0.86 0.67 0.43 0.31 0.35 0.35 0.24 0.25 0.16 0.12 0.13 0.18 0.22 0.41 0.59 0.80 1.37
0.03 0.26 0.74 0.92 1.16 1.30 1.14 1.06 0.89 0.81 0.73 0.71 0.63 0.70 0.82 0.85 0.82 0.96 0.87 0.83 1.07 1.39 1.10 1.04 0.93 1.00 0.97 0.96 0.82 0.78 0.70 0.65 0.51 0.38 0.29 0.23 0.21 0.25 0.29 0.29 0.40 0.44 0.51
0.10 0.40 0.74 0.90 1.20 1.16 0.66 0.53 0.57 0.57 0.45 0.59 0.60 0.68 0.86 1.09 1.12 1.01 0.89 0.87 0.97 1.01 1.02 1.29 1.55 1.74 1.55 1.24 1.17 1.00 0.69 0.54 0.43 0.29 0.20 0.18 0.21 0.24 0.32 0.38 0.47 0.55 0.50
0.24 0.52 0.62 0.49 0.35 0.21 0.18 0.29 0.42 0.51 0.52 0.48 0.57 0.74 0.69 1.02 1.05 0.88 0.87 0.87 1.00 1.12 1.05 0.89 1.02 1.18 1.17 1.08 1.01 0.96 0.94 0.80 0.59 0.35 0.19 0.13 0.13 0.16 0.22 0.28 0.36 0.46 0.55
0.15 0.16 0.14 0.11 0.09 0.13 0.16 0.38 0.61 0.91 0.84 0.69 0.60 0.60 0.75 0.95 1.13 1.01 0.91 0.82 0.81 1.22 1.49 1.25 1.18 1.17 1.07 1.05 0.94 0.98 1.04 0.83 0.51 0.42 0.35 0.23 0.27 0.29 0.27 0.35 0.41 0.54 0.64
0.03 0.14 0.15 0.15 0.17 0.26 0.30 0.40 0.54 0.54 0.42 0.28 0.31 0.40 0.51 0.86 1.20 0.99 1.29 1.45 1.31 1.11 1.26 1.63 1.63 1.46 1.54 1.59 1.82 1.79 1.34 1.07 0.99 0.85 0.48 0.42 0.33 0.41 0.45 0.52 0.65 0.85 0.92
0.09 0.16 0.18 0.17 0.21 0.32 0.38 0.43 0.76 0.83 0.85 0.83 0.96 1.11 1.20 1.37 1.63 1.58 1.44 1.89 1.93 1.79 1.49 1.88 2.50 2.85 2.82 3.23 3.23 2.72 2.36 1.95 1.54 1.20 0.87 0.66 0.70 0.55 0.52 0.58 0.65 0.83 0.99
0.13 0.18 0.15 0.27 0.43 0.74 0.99 1.15 1.31 1.55 1.58 1.55 1.53 1.52 1.58 1.78 2.09 2.20 2.37 2.33 2.72 2.66 2.49 2.31 2.50 3.29 3.84 3.57 3.06 2.88 2.32 1.87 1.47 1.42 1.16 0.92 1.09 1.06 0.88 0.86 0.78 0.79 1.04